Probability
0 0 0 0 0 0 0 0 0 0 0 0 0 0 0 0 0 0 0 0 0 0 0 0 0 0 0 0 1 0 0 0 0 0 0 0 0 0 0 0 0 0 0
0 0 0 0 0 0 0 0 0 0 0 0 0 0 1 1 0 1 1 1 1 1 2 2 2 2 2 2 2 1 0 0 0 0 0 0 0 0 0 0 0 0 0
0 0 0 0 0 0 0 0 0 0 0 0 0 0 1 1 1 2 2 2 2 3 4 4 4 4 4 4 3 2 0 0 1 0 0 0 0 0 0 0 0 0 0
0 0 0 0 0 0 0 0 0 0 0 0 0 1 1 1 1 2 2 2 1 2 3 3 4 4 4 4 3 1 0 1 1 0 0 1 0 0 0 0 0 0 0
0 0 0 0 0 0 0 0 0 0 0 0 1 1 1 0 0 1 1 1 0 0 1 1 2 3 4 5 4 2 1 2 2 1 0 0 0 0 0 0 0 0 0
0 0 0 0 0 0 0 0 0 0 0 0 1 2 1 0 0 0 0 0 0 0 0 0 1 3 4 5 5 5 4 4 3 1 0 0 0 0 0 0 0 0 0
0 0 0 0 0 0 0 0 0 0 0 0 0 1 1 0 0 0 0 0 0 0 0 0 0 1 3 4 5 6 5 5 4 2 1 0 0 0 0 0 0 0 0
0 0 0 0 0 0 0 0 0 0 0 0 0 0 0 0 0 0 0 0 0 0 0 0 0 0 1 2 3 4 5 5 4 4 2 1 1 0 0 0 0 0 0
0 0 0 0 0 0 0 0 0 0 0 0 0 0 0 0 0 0 0 0 0 0 0 0 0 0 0 1 1 2 3 3 4 3 3 2 2 1 1 0 0 0 0
0 0 0 0 0 0 0 0 0 0 0 0 0 0 0 0 0 0 0 0 0 0 0 0 0 0 0 0 0 1 1 2 2 2 2 2 2 2 2 1 0 0 0
0 1 2 2 1 1 1 1 0 0 0 0 1 0 0 0 0 0 0 0 0 0 0 0 0 0 0 0 0 0 0 1 1 0 0 0 1 2 3 2 1 1 0
1 2 3 4 4 3 2 2 1 1 1 2 2 1 1 1 1 1 1 0 0 0 0 0 1 0 0 0 0 1 0 0 0 0 0 0 0 1 2 2 2 2 1
1 2 5 6 6 4 3 3 4 5 5 5 5 4 3 3 3 2 2 1 1 0 0 0 0 0 1 1 1 1 1 0 0 0 0 0 0 0 1 1 2 2 2
1 4 7 8 7 5 5 6 7 7 7 7 7 6 6 5 4 3 3 3 2 1 1 1 1 1 2 2 2 2 2 1 0 0 0 0 0 0 0 0 1 1 1
2 5 9 9 8 6 7 8 7 6 7 8 7 6 6 5 4 3 3 3 3 3 2 2 2 1 2 3 3 3 2 1 0 0 0 0 0 0 0 0 0 0 0
3 5 8 9 8 7 8 9 7 6 7 8 7 6 6 6 5 4 4 4 4 4 3 3 3 2 2 3 3 3 2 1 0 0 0 0 0 0 0 0 0 0 0
5 5 7 8 8 7 7 8 8 7 7 8 7 7 8 8 7 6 6 6 6 5 4 3 4 4 3 3 3 3 2 1 0 0 0 0 0 0 0 0 0 0 0
6 6 7 9 9 8 7 8 8 8 7 7 6 6 7 8 8 7 6 6 6 6 5 4 4 4 4 3 3 3 2 1 0 0 0 0 0 0 0 0 0 0 0
9 9 11 13 13 11 9 8 8 7 7 7 6 5 6 7 7 6 6 6 6 6 6 5 4 4 3 3 3 3 2 1 0 0 0 0 0 0 0 0 0 0 0
16 16 17 19 17 13 10 8 7 7 7 7 6 5 6 6 6 5 4 4 5 6 6 6 5 4 3 3 3 3 3 1 0 0 0 0 0 0 0 0 0 0 0
22 22 23 23 20 15 12 10 9 9 8 6 5 4 4 5 5 4 3 3 4 6 6 6 6 5 4 4 3 3 3 2 1 0 0 0 0 0 0 0 0 0 0
23 23 24 23 21 17 14 12 12 11 10 8 6 5 5 5 5 4 3 3 4 5 7 7 7 6 6 5 4 3 3 3 2 1 0 0 0 0 0 0 0 0 0
23 22 21 20 19 17 15 12 11 13 13 12 10 8 8 8 7 5 3 4 4 6 8 9 8 7 7 6 4 3 3 3 2 1 0 0 0 0 0 0 0 0 0
23 21 19 18 18 16 14 10 8 12 15 14 13 10 10 10 9 6 5 5 6 6 7 8 8 7 6 5 4 4 3 3 2 1 0 0 0 0 0 0 0 0 0
21 20 19 18 18 16 12 6 4 10 14 15 13 11 10 10 9 7 6 6 6 6 5 4 4 5 3 2 3 5 5 4 2 0 0 0 0 0 0 0 0 0 0
19 19 18 18 16 14 9 3 2 8 13 14 13 12 10 9 8 7 6 6 6 6 4 2 2 2 1 1 2 5 7 6 2 0 0 0 0 0 0 0 0 0 0
Wind_Speed
4 3 2 2 2 1 2 2 1 1 1 1 2 4 4 4 3 3 3 11 11 10 11 11 10 10 9 9 9 9 8 8 7 7 7 7 7 7 7 7 7 6 6
3 3 3 2 2 2 2 2 2 2 1 1 2 3 4 3 3 3 3 6 10 10 9 10 10 9 9 9 9 9 8 8 7 7 7 7 7 8 7 7 7 7 6
4 4 3 3 2 2 2 2 2 2 1 1 1 2 2 3 4 3 3 3 4 8 9 9 9 9 9 9 9 8 8 7 7 7 8 8 8 7 7 7 7 7 7
4 4 3 2 2 2 2 2 2 2 1 1 1 1 1 2 4 4 3 3 2 3 6 9 8 8 9 9 8 8 8 7 8 7 8 8 7 7 7 7 7 7 7
4 3 3 2 2 2 2 2 2 2 2 1 1 1 0 1 2 4 3 4 3 3 2 5 8 8 9 8 8 8 8 7 8 8 8 8 7 7 7 6 6 7 7
4 4 2 2 3 3 2 2 2 2 2 2 2 1 1 0 1 2 3 3 3 4 3 3 3 4 7 7 7 7 8 7 7 7 7 7 7 7 7 7 7 7 7
4 4 3 2 3 3 3 3 3 3 1 2 2 2 2 1 0 1 2 2 3 4 4 4 3 2 2 5 6 6 7 7 7 7 7 7 6 6 7 7 7 7 8
4 4 3 3 3 3 3 3 3 2 1 2 2 2 1 3 2 1 1 2 3 2 3 4 4 3 2 2 3 5 6 5 6 6 6 6 5 5 5 6 6 6 7
4 4 4 3 3 3 3 3 3 4 2 1 2 3 3 2 1 2 1 1 2 2 2 3 4 3 3 2 1 2 4 3 4 5 5 5 5 4 4 4 4 5 5
4 4 4 4 4 3 3 3 3 3 3 2 1 1 2 4 3 0 2 1 0 1 2 2 3 3 3 2 2 3 3 3 3 3 4 4 3 3 3 4 4 3 3
3 4 4 4 4 3 3 3 3 3 3 3 2 1 1 1 2 3 1 1 1 1 1 2 2 2 2 2 2 3 4 3 3 3 3 3 2 2 2 3 3 4 3
2 3 3 3 4 3 3 3 3 3 3 3 2 2 2 2 2 3 2 2 1 1 1 1 2 2 2 2 4 6 5 4 3 3 2 2 2 2 2 2 2 3 3
2 3 3 3 3 3 4 3 3 3 3 3 3 2 2 3 3 3 3 2 1 1 1 1 2 2 3 2 3 6 6 5 4 3 2 2 2 2 2 2 2 1 1
3 4 4 3 4 4 4 3 3 3 3 3 4 3 2 2 2 3 4 4 2 1 1 2 1 2 2 3 4 5 4 6 5 4 3 3 2 2 2 2 2 2 1
3 4 4 4 4 3 3 3 3 3 3 3 3 3 2 2 2 2 3 4 4 3 3 3 2 2 2 2 4 3 3 6 6 5 5 4 3 3 3 2 2 2 1
3 4 4 4 3 3 3 3 2 3 3 2 2 2 2 2 2 2 3 3 3 4 3 3 3 2 3 3 4 3 3 6 7 6 6 5 4 4 4 4 3 2 2
4 4 4 4 4 4 3 3 3 3 3 3 3 3 3 2 2 2 2 2 2 3 3 2 1 1 2 3 2 2 2 2 3 7 7 6 6 5 5 4 4 3 3
4 4 4 4 4 4 3 4 4 4 4 4 4 3 3 2 3 2 2 3 2 3 3 3 1 1 2 3 3 3 2 2 2 5 7 7 7 6 6 5 5 4 4
4 4 4 4 4 4 4 4 4 4 4 4 4 4 4 3 3 2 2 2 2 2 2 3 2 1 1 1 1 2 2 2 3 4 6 7 7 7 7 6 6 5 5
4 4 4 5 5 4 4 4 4 4 4 4 3 4 4 4 4 4 3 3 3 2 2 3 2 2 1 1 2 1 2 2 3 3 4 4 6 7 8 8 7 7 7
5 4 4 4 4 4 4 5 4 4 4 3 2 3 3 4 5 4 3 4 4 3 2 2 2 2 2 2 3 3 3 2 3 2 2 3 3 3 4 7 8 9 8
4 4 4 4 4 4 4 6 5 4 4 4 3 3 3 3 4 5 5 6 7 6 5 4 3 4 5 4 3 3 3 2 3 3 3 3 3 4 4 4 8 9 9
4 4 4 4 4 5 6 7 8 5 5 5 5 4 3 3 3 3 4 5 6 7 8 6 6 6 6 6 5 4 4 4 5 3 3 3 3 4 4 6 10 10 10
4 4 4 5 5 6 7 7 8 5 5 5 5 5 5 4 4 4 3 3 3 4 6 6 7 7 6 6 6 6 6 4 3 2 3 3 3 4 4 4 8 11 11
4 4 4 5 5 5 7 7 6 3 4 5 4 4 5 5 6 6 4 4 4 4 5 6 7 7 7 8 6 3 3 2 3 3 3 3 3 2 2 4 5 9 10
4 4 4 4 4 4 5 6 6 3 3 3 3 4 6 7 7 8 6 5 6 5 3 3 3 4 5 6 8 7 6 4 3 3 4 3 2 1 2 2 2 3 5
Wind_Direction
145 146 147 148 153 147 150 148 149 157 157 159 161 149 145 151 153 162 169 173 172 171 173 177 177 178 182 185 187 190 193 195 194 194 198 200 201 202 202 203 204 204 203
145 147 148 154 160 165 164 162 162 151 142 122 112 131 145 149 144 151 158 169 171 173 178 180 182 185 189 192 193 195 196 197 198 199 201 204 204 204 204 206 206 204 204
144 143 143 154 167 159 154 148 146 128 132 116 105 122 139 145 152 159 160 163 171 181 184 186 188 190 192 193 195 198 199 200 201 202 203 205 206 207 208 208 210 209 208
144 139 143 159 163 148 147 144 136 121 115 113 103 90 126 144 162 165 163 162 166 179 191 193 194 195 198 201 203 200 204 205 204 203 202 205 208 208 211 215 216 214 215
147 139 147 160 151 137 141 152 135 134 133 129 129 116 53 140 166 173 168 171 175 177 183 196 199 199 203 208 210 209 211 211 208 207 206 207 211 211 212 216 221 221 221
153 144 149 157 141 129 125 129 134 137 143 149 123 86 24 326 151 174 183 178 182 184 185 191 199 202 204 209 213 214 218 214 207 204 204 208 214 216 214 217 223 224 223
154 147 148 147 139 140 151 146 138 133 125 116 91 46 6 356 14 222 184 172 177 184 180 186 185 193 207 215 217 215 223 217 209 206 206 210 218 221 219 222 227 229 226
157 158 154 157 152 144 144 145 141 133 152 140 131 112 27 356 356 358 155 174 185 180 180 183 184 190 199 204 210 212 222 217 203 196 195 200 207 212 218 223 226 229 228
165 161 161 158 158 155 165 171 159 155 170 193 161 152 155 203 300 342 333 142 166 164 175 173 178 183 184 181 190 200 184 185 189 194 198 202 204 210 215 220 225 229 226
173 170 169 165 165 161 166 181 165 160 156 178 214 197 177 164 160 200 334 341 140 171 182 174 165 166 166 166 158 150 155 164 171 181 183 179 177 188 206 209 212 213 213
183 177 173 173 172 167 172 178 167 165 165 175 186 181 143 135 143 151 200 284 335 273 205 183 166 167 166 165 169 166 160 166 162 163 164 168 178 177 185 203 214 215 210
194 191 176 174 175 174 181 184 183 177 184 186 190 180 170 170 181 164 180 201 227 258 236 206 176 175 175 175 181 171 171 169 169 167 173 176 182 185 189 198 209 215 213
192 201 186 177 180 186 188 186 185 193 191 190 198 200 197 199 175 160 154 170 197 244 230 238 203 182 184 177 186 179 176 170 167 167 178 181 187 196 202 209 215 223 226
197 190 183 187 192 193 194 187 192 206 200 202 210 203 204 215 186 171 164 156 161 244 240 236 234 199 191 182 186 182 182 176 174 176 186 186 189 191 204 214 223 217 232
193 186 185 187 192 193 191 184 199 210 200 203 207 206 207 221 204 194 172 161 160 189 229 221 210 206 189 180 182 178 185 186 184 185 189 191 196 202 207 203 201 190 185
185 174 184 187 194 196 193 189 202 212 200 209 204 203 215 222 208 193 183 180 170 170 208 220 211 203 185 181 179 182 197 191 195 193 195 196 204 209 210 203 200 192 182
185 185 190 191 198 206 206 199 209 205 203 216 215 203 214 199 196 194 182 182 181 162 193 239 215 179 167 179 178 189 195 206 208 204 204 203 206 209 212 209 204 200 197
193 193 188 192 201 206 207 205 215 213 206 213 216 207 217 204 204 201 190 194 193 179 175 209 222 184 196 190 184 194 203 209 225 217 212 212 211 211 211 209 205 203 204
189 192 188 197 206 209 210 213 211 210 207 212 211 208 215 195 208 208 198 195 201 191 177 177 203 203 195 179 166 213 219 228 228 221 218 221 217 216 215 214 212 208 210
192 198 203 207 209 211 211 212 204 202 203 207 206 207 204 196 200 196 194 190 180 171 167 168 183 191 187 190 162 197 232 235 237 229 229 224 223 224 224 224 223 218 215
198 196 201 210 211 209 210 201 199 197 199 204 206 206 205 201 198 193 191 186 173 174 171 178 192 197 201 187 204 201 218 238 252 225 224 234 228 236 233 231 229 226 219
199 188 194 202 213 224 212 198 192 196 194 192 203 215 211 203 204 203 202 195 183 182 188 193 205 211 219 211 204 200 200 202 251 233 201 239 210 232 239 231 230 226 221
200 198 203 209 219 228 213 202 198 195 200 204 204 207 217 212 202 198 204 202 207 205 195 192 205 217 212 206 193 203 205 207 226 219 189 244 227 235 239 235 227 227 226
202 208 211 218 224 233 220 213 206 204 208 213 211 207 208 215 211 191 195 210 227 228 220 211 213 220 218 206 197 201 207 220 249 229 179 221 230 236 241 235 230 227 228
204 211 211 215 225 237 223 216 205 205 212 219 219 214 207 213 216 194 189 209 235 253 249 231 222 221 217 210 196 178 187 194 241 245 206 202 218 232 242 243 235 225 226
205 209 220 221 220 225 219 214 204 201 205 218 226 226 220 213 213 200 196 203 224 241 240 247 242 239 229 220 203 195 194 200 217 239 212 190 204 176 255 256 237 228 227